Voltar ao catálogo

CZ-6A DEB

AtivoPO
NORAD 61138·DEBRIS·🇨🇳 China

Lançado Aug 6, 2024 de Taiyuan Satellite Launch Center

Loading…

Próximas Passagens (próximas 24 horas)

TLE

AtualizadoSource: Space-Track

Época: Sep 13, 2026, 23:41 UTC

1 61138U 24140QG  26256.98745025  .00003043  00000-0  15774-2 0  9997
2 61138  88.9727 264.0777 0113491 332.7605  26.7654 14.11373345105929

Acompanhe CZ-6A DEB em tempo real com AllMySat

Download on the App Store